period_start,C,m1,H,J0,J1,J2,J3,J4,J5,JA,JB,JC,JD,JJ,JK,JN,#
2013-08-02 00:00:27,0.00,0.06,0.00,23.98,27.42,28.95,6.15,31.83,1020.18,2052.98,3487.03,3340.00,3636.22,350.40,324.39,17.12,0000 0000 0000 0000 000000
2013-08-02 00:01:27,-0.01,0.06,0.00,23.96,27.42,28.89,6.05,31.75,1020.14,2052.96,3487.02,3340.00,3636.30,350.30,324.32,17.13,0000 0000 0000 0000 000000
2013-08-02 00:02:27,-0.00,0.06,0.00,23.95,27.42,28.96,5.89,31.83,1020.11,2052.97,3487.03,3340.00,3636.28,349.58,323.11,17.13,0000 0000 0000 0000 000000
2013-08-02 00:03:27,-0.01,0.06,0.00,23.95,27.43,28.97,5.84,31.58,1020.10,2052.98,3487.03,3340.00,3636.40,349.50,323.69,17.14,0000 0000 0000 0000 000000
2013-08-02 00:04:28,0.01,0.06,0.00,23.96,27.43,28.95,5.93,31.67,1020.15,2052.97,3487.02,3340.00,3636.26,349.61,323.56,17.14,0000 0000 0000 0000 000000
2013-08-02 00:05:28,0.00,0.06,0.00,23.96,27.43,28.91,6.07,31.71,1020.11,2052.97,3487.00,3340.00,3636.22,350.41,324.41,17.15,0000 0000 0000 0000 000000
2013-08-02 00:06:28,0.01,0.06,0.00,23.98,27.43,28.89,6.10,31.71,1020.07,2052.99,3487.01,3340.00,3636.20,350.90,324.83,17.15,0000 0000 0000 0000 000000
2013-08-02 00:07:28,0.01,0.06,0.00,23.99,27.43,28.92,5.95,31.79,1020.07,2052.99,3487.01,3340.00,3636.21,350.06,324.17,17.16,0000 0000 0000 0000 000000
2013-08-02 00:08:28,0.00,0.06,0.00,23.98,27.44,28.92,5.95,31.75,1020.07,2052.98,3487.01,3340.00,3636.22,349.49,323.52,17.17,0000 0000 0000 0000 000000
2013-08-02 00:09:29,-0.01,0.06,0.00,23.95,27.44,28.98,5.88,31.67,1020.06,2052.97,3487.00,3340.00,3636.14,349.36,323.50,17.17,0000 0000 0000 0000 000000
2013-08-02 00:10:29,0.01,0.06,0.00,23.96,27.44,28.93,5.87,31.67,1020.06,2052.98,3487.00,3340.00,3636.11,348.45,323.05,17.18,0000 0000 0000 0000 000000
2013-08-02 00:11:29,-0.01,0.06,0.00,23.99,27.44,28.91,5.77,31.75,1020.07,2052.95,3487.00,3339.99,3636.13,349.41,323.15,17.18,0000 0000 0000 0000 000000
2013-08-02 00:12:29,0.01,0.06,0.00,23.96,27.45,28.91,6.02,31.88,1020.04,2052.98,3486.99,3339.99,3636.05,349.63,323.58,17.19,0000 0000 0000 0000 000000
2013-08-02 00:13:30,0.01,0.06,0.00,23.96,27.45,28.91,5.93,31.79,1020.09,2052.97,3486.99,3339.99,3636.04,349.06,323.50,17.20,0000 0000 0000 0000 000000
2013-08-02 00:14:30,0.00,0.06,0.00,24.00,27.45,28.92,5.88,31.58,1020.06,2052.95,3486.99,3339.99,3636.05,349.64,323.64,17.20,0000 0000 0000 0000 000000
2013-08-02 00:15:30,-0.01,0.06,0.00,24.05,27.45,28.89,6.03,31.92,1020.10,2052.95,3486.97,3339.99,3636.02,350.03,323.96,17.21,0000 0000 0000 0000 000000
2013-08-02 00:16:30,-0.00,0.06,0.00,24.07,27.45,28.94,5.92,31.67,1020.07,2052.92,3486.96,3339.99,3636.00,349.06,323.43,17.21,0000 0000 0000 0000 000000
2013-08-02 00:17:30,0.00,0.06,0.00,24.04,27.45,28.98,6.13,31.79,1020.08,2052.94,3486.96,3339.98,3636.00,350.35,324.25,17.22,0000 0000 0000 0000 000000
2013-08-02 00:18:31,0.01,0.06,0.00,24.02,27.45,28.97,6.07,31.88,1020.07,2052.97,3486.97,3339.99,3636.00,350.15,324.09,17.22,0000 0000 0000 0000 000000
2013-08-02 00:19:31,0.00,0.06,0.00,23.98,27.45,28.92,5.96,31.75,1020.06,2052.95,3486.98,3339.98,3636.01,349.47,323.50,17.23,0000 0000 0000 0000 000000
2013-08-02 00:20:31,0.00,0.06,0.00,24.03,27.45,28.94,5.86,31.63,1020.08,2052.95,3486.99,3339.97,3636.01,349.29,323.25,17.24,0000 0000 0000 0000 000000
2013-08-02 00:21:31,0.00,0.06,0.00,24.04,27.45,28.95,6.08,31.83,1020.06,2052.98,3486.98,3339.98,3636.00,349.92,323.86,17.24,0000 0000 0000 0000 000000
2013-08-02 00:22:32,0.01,0.06,0.00,24.05,27.45,28.92,5.88,31.67,1020.06,2052.99,3486.97,3339.98,3636.00,349.27,323.24,17.25,0000 0000 0000 0000 000000
2013-08-02 00:23:32,-0.00,0.06,0.00,24.00,27.45,28.92,6.02,31.67,1020.05,2052.93,3486.98,3339.99,3636.00,350.20,323.96,17.25,0000 0000 0000 0000 000000
2013-08-02 00:24:32,-0.02,0.06,0.00,24.00,27.45,28.91,6.04,31.75,1020.04,2052.95,3486.97,3339.99,3636.00,350.19,323.82,17.26,0000 0000 0000 0000 000000
2013-08-02 00:25:33,0.00,0.06,0.00,24.03,27.45,28.94,5.92,31.67,1020.06,2052.96,3486.98,3339.98,3636.00,350.39,324.29,17.27,0000 0000 0000 0000 000000
2013-08-02 00:26:33,-0.00,0.06,0.00,24.07,27.45,28.96,5.92,31.67,1020.05,2052.93,3486.99,3339.99,3636.00,350.28,324.14,17.27,0000 0000 0000 0000 000000
2013-08-02 00:27:33,-0.01,0.06,0.00,24.08,27.45,29.00,6.02,31.67,1020.04,2052.94,3486.96,3339.98,3636.01,350.11,323.97,17.28,0000 0000 0000 0000 000000
2013-08-02 00:28:33,0.02,0.06,0.00,24.12,27.45,29.02,5.93,31.46,1020.05,2052.96,3486.94,3339.98,3636.00,350.46,324.26,17.28,0000 0000 0000 0000 000000
2013-08-02 00:29:34,0.02,0.06,0.00,24.13,27.46,28.99,5.88,31.50,1020.04,2052.97,3486.97,3339.99,3636.01,349.73,323.57,17.29,0000 0000 0000 0000 000000
2013-08-02 00:30:34,0.00,0.06,0.00,24.14,27.46,29.02,5.98,31.71,1020.04,2052.96,3486.97,3339.99,3636.00,349.73,323.56,17.30,0000 0000 0000 0000 000000
2013-08-02 00:31:34,0.00,0.06,0.00,24.14,27.47,29.07,6.06,31.83,1020.05,2052.95,3486.98,3339.99,3636.00,350.39,324.17,17.30,0000 0000 0000 0000 000000
2013-08-02 00:32:34,0.00,0.06,0.00,24.13,27.47,29.04,5.96,31.67,1020.04,2052.97,3486.99,3339.99,3636.00,350.69,324.51,17.31,0000 0000 0000 0000 000000
2013-08-02 00:33:35,0.01,0.06,0.00,24.10,27.47,29.02,5.96,31.58,1020.04,2052.94,3486.93,3339.97,3636.00,350.37,324.01,17.31,0000 0000 0000 0000 000000
2013-08-02 00:34:35,-0.01,0.06,0.00,24.13,27.47,29.01,5.91,31.67,1020.04,2052.92,3486.90,3339.94,3636.00,350.45,324.24,17.32,0000 0000 0000 0000 000000
2013-08-02 00:35:35,0.00,0.06,0.00,24.12,27.47,29.00,6.13,31.88,1020.04,2052.93,3486.80,3339.88,3636.00,349.49,323.42,17.32,0000 0000 0000 0000 000000
2013-08-02 00:36:35,0.02,0.06,0.00,24.12,27.47,29.01,6.11,31.88,1020.04,2052.89,3486.68,3339.91,3636.00,350.57,324.36,17.33,0000 0000 0000 0000 000000
2013-08-02 00:37:36,-0.01,0.06,0.00,24.20,27.47,29.05,5.84,31.58,1020.04,2052.93,3486.81,3339.93,3636.00,349.93,323.68,17.34,0000 0000 0000 0000 000000
2013-08-02 00:38:36,-0.00,0.06,0.00,24.20,27.47,29.05,5.93,31.67,1020.04,2052.95,3486.85,3339.94,3635.99,349.07,322.89,17.34,0000 0000 0000 0000 000000
2013-08-02 00:39:36,0.01,0.06,0.00,24.18,27.47,29.03,5.93,31.75,1020.04,2052.95,3486.79,3339.95,3635.99,349.59,323.39,17.35,0000 0000 0000 0000 000000
2013-08-02 00:40:36,0.00,0.06,0.00,24.20,27.47,29.08,5.95,31.63,1020.04,2052.91,3486.79,3339.88,3635.99,350.12,323.86,17.35,0000 0000 0000 0000 000000
2013-08-02 00:41:36,0.01,0.06,0.00,24.20,27.47,29.08,6.11,31.75,1020.04,2052.87,3486.73,3339.84,3635.99,350.40,324.11,17.36,0000 0000 0000 0000 000000
2013-08-02 00:42:37,-0.03,0.06,0.00,24.18,27.47,29.06,5.97,31.92,1020.04,2052.92,3486.69,3339.87,3635.98,349.67,323.47,17.37,0000 0000 0000 0000 000000
2013-08-02 00:43:37,0.04,0.06,0.00,24.23,27.48,29.09,6.08,31.88,1020.04,2052.89,3486.44,3339.64,3635.96,350.42,324.03,17.37,0000 0000 0000 0000 000000
2013-08-02 00:44:37,0.05,0.06,0.00,24.21,27.49,29.05,5.86,31.92,1020.04,2052.78,3486.21,3339.33,3635.97,349.72,323.47,17.38,0000 0000 0000 0000 000000
2013-08-02 00:45:37,-0.04,0.06,0.00,24.23,27.49,29.05,5.79,31.92,1020.04,2052.61,3486.12,3339.22,3635.95,349.71,323.95,17.38,0000 0000 0000 0000 000000
2013-08-02 00:46:37,-0.05,0.06,0.00,24.24,27.50,29.09,5.94,31.75,1020.04,2052.65,3486.11,3339.25,3635.96,349.37,322.96,17.39,0000 0000 0000 0000 000000
2013-08-02 00:47:37,0.03,0.06,0.00,24.24,27.50,29.13,5.93,31.83,1020.04,2052.75,3486.19,3339.48,3635.98,350.05,323.75,17.39,0000 0000 0000 0000 000000
2013-08-02 00:48:38,0.03,0.06,0.00,24.26,27.50,29.11,5.97,31.75,1020.04,2052.80,3486.23,3339.53,3635.97,350.58,324.07,17.40,0000 0000 0000 0000 000000
2013-08-02 00:49:38,-0.05,0.06,0.00,24.22,27.50,29.11,6.02,31.83,1020.04,2052.69,3486.19,3339.38,3635.94,349.59,323.49,17.41,0000 0000 0000 0000 000000
2013-08-02 00:50:38,-0.00,0.06,0.00,24.21,27.50,29.09,6.07,31.75,1020.04,2052.74,3486.10,3339.31,3635.92,350.11,324.20,17.41,0000 0000 0000 0000 000000
2013-08-02 00:51:38,0.05,0.06,0.00,24.26,27.50,29.14,5.85,31.58,1020.04,2052.70,3486.06,3339.20,3635.89,348.75,322.39,17.42,0000 0000 0000 0000 000000
2013-08-02 00:52:39,-0.01,0.06,0.00,24.29,27.50,29.16,5.92,31.79,1020.04,2052.59,3486.04,3339.12,3635.83,349.24,323.30,17.42,0000 0000 0000 0000 000000
2013-08-02 00:53:39,-0.02,0.06,0.00,24.28,27.50,29.17,5.98,31.67,1020.04,2052.53,3486.07,3339.06,3635.72,350.20,323.83,17.43,0000 0000 0000 0000 000000
2013-08-02 00:54:39,-0.04,0.06,0.00,24.29,27.51,29.12,6.02,31.63,1020.03,2052.50,3486.05,3339.08,3635.72,350.46,324.22,17.44,0000 0000 0000 0000 000000
2013-08-02 00:55:40,-0.01,0.06,0.00,24.30,27.51,29.13,6.01,31.67,1020.03,2052.54,3486.03,3339.06,3635.77,350.33,323.95,17.44,0000 0000 0000 0000 000000
2013-08-02 00:56:40,0.05,0.06,0.00,24.30,27.52,29.17,5.87,31.75,1020.02,2052.64,3486.02,3339.09,3635.79,349.53,323.19,17.45,0000 0000 0000 0000 000000
2013-08-02 00:57:40,0.03,0.06,0.00,24.29,27.52,29.17,5.85,31.75,1019.99,2052.74,3486.01,3339.09,3635.81,350.63,324.47,17.45,0000 0000 0000 0000 000000
2013-08-02 00:58:40,0.06,0.06,0.00,24.25,27.52,29.19,5.98,31.50,1019.99,2052.76,3486.02,3339.06,3635.69,350.08,323.75,17.46,0000 0000 0000 0000 000000
2013-08-02 00:59:41,0.04,0.06,0.00,24.23,27.52,29.27,5.96,31.75,1019.98,2052.54,3486.00,3339.03,3635.34,349.88,323.58,17.47,0000 0000 0000 0000 000000
2013-08-02 01:00:41,-0.11,0.06,0.00,24.28,27.52,29.28,6.04,31.75,1019.99,2052.42,3486.01,3339.02,3635.28,351.39,324.93,17.47,0000 0000 0000 0000 000000
2013-08-02 01:01:41,-0.07,0.06,0.00,24.32,27.52,29.21,6.02,31.75,1019.97,2052.42,3486.00,3339.01,3635.28,350.33,323.71,17.48,0000 0000 0000 0000 000000
2013-08-02 01:02:41,-0.01,0.06,0.00,24.34,27.52,29.24,6.07,31.63,1020.00,2052.34,3486.00,3339.01,3635.17,350.79,324.31,17.48,0000 0000 0000 0000 000000
2013-08-02 01:03:41,-0.03,0.06,0.00,24.34,27.53,29.23,5.98,31.71,1020.03,2052.33,3486.00,3339.00,3635.09,350.08,323.67,17.49,0000 0000 0000 0000 000000
2013-08-02 01:04:42,0.04,0.06,0.00,24.30,27.54,29.25,5.98,31.71,1020.03,2052.41,3486.00,3339.00,3635.05,349.69,323.35,17.49,0000 0000 0000 0000 000000
2013-08-02 01:05:42,0.03,0.06,0.00,24.31,27.55,29.27,6.19,31.71,1020.02,2052.38,3486.00,3339.00,3635.06,350.87,324.56,17.50,0000 0000 0000 0000 000000
2013-08-02 01:06:42,-0.01,0.06,0.00,24.36,27.55,29.24,5.92,31.67,1020.03,2052.47,3486.00,3339.02,3635.09,349.94,323.95,17.51,0000 0000 0000 0000 000000
2013-08-02 01:07:42,0.08,0.06,0.00,24.36,27.55,29.26,5.93,31.75,1020.03,2052.44,3486.00,3339.01,3635.07,349.48,322.90,17.51,0000 0000 0000 0000 000000
2013-08-02 01:08:42,-0.02,0.06,0.00,24.35,27.55,29.25,5.87,31.50,1020.03,2052.34,3486.00,3339.00,3635.05,349.56,323.51,17.52,0000 0000 0000 0000 000000
2013-08-02 01:09:43,-0.12,0.06,0.00,24.34,27.55,29.23,5.92,31.67,1020.00,2052.21,3486.00,3339.00,3635.04,349.58,323.33,17.52,0000 0000 0000 0000 000000
2013-08-02 01:10:43,-0.05,0.06,0.00,24.38,27.55,29.23,6.03,31.63,1020.00,2052.19,3485.98,3339.00,3635.03,350.42,323.85,17.53,0000 0000 0000 0000 000000
2013-08-02 01:11:43,-0.05,0.06,0.00,24.39,27.56,29.25,5.88,31.83,1020.00,2052.14,3485.98,3339.00,3635.02,349.40,322.97,17.54,0000 0000 0000 0000 000000
2013-08-02 01:12:44,-0.02,0.06,0.00,24.42,27.56,29.27,6.06,31.79,1020.01,2052.11,3485.97,3339.00,3635.01,350.59,324.21,17.54,0000 0000 0000 0000 000000
2013-08-02 01:13:44,-0.04,0.06,0.00,24.43,27.57,29.26,5.96,31.67,1020.00,2052.09,3485.98,3339.00,3635.00,349.57,323.08,17.55,0000 0000 0000 0000 000000
2013-08-02 01:14:44,-0.01,0.06,0.00,24.41,27.57,29.25,5.99,31.75,1019.99,2052.06,3485.98,3339.00,3635.00,351.10,324.11,17.55,0000 0000 0000 0000 000000
2013-08-02 01:15:44,-0.00,0.06,0.00,24.39,27.57,29.26,6.07,31.67,1019.99,2052.05,3485.97,3339.00,3635.00,348.61,322.65,17.56,0000 0000 0000 0000 000000
2013-08-02 01:16:44,0.00,0.06,0.00,24.43,27.57,29.29,5.76,31.75,1020.00,2052.04,3485.96,3339.00,3634.98,349.46,322.90,17.56,0000 0000 0000 0000 000000
2013-08-02 01:17:44,-0.02,0.06,0.00,24.44,27.57,29.29,5.98,31.75,1020.02,2052.02,3485.92,3338.99,3634.99,350.28,323.52,17.57,0000 0000 0000 0000 000000
2013-08-02 01:18:45,-0.00,0.06,0.00,24.45,27.58,29.28,5.89,31.75,1019.99,2052.03,3485.92,3338.97,3634.99,349.17,322.67,17.58,0000 0000 0000 0000 000000
2013-08-02 01:19:45,0.01,0.06,0.00,24.45,27.58,29.30,5.97,31.83,1019.98,2052.03,3485.94,3338.98,3634.99,349.54,322.87,17.58,0000 0000 0000 0000 000000
2013-08-02 01:20:45,-0.01,0.06,0.00,24.43,27.60,29.31,6.04,31.75,1019.95,2052.02,3485.89,3338.98,3634.99,350.22,323.37,17.59,0000 0000 0000 0000 000000
2013-08-02 01:21:45,0.01,0.06,0.00,24.40,27.60,29.32,6.02,31.79,1019.91,2052.02,3485.77,3338.99,3634.99,349.19,322.88,17.59,0000 0000 0000 0000 000000
2013-08-02 01:22:45,0.01,0.06,0.00,24.43,27.60,29.31,5.84,31.79,1019.96,2052.02,3485.50,3338.97,3634.99,350.72,324.15,17.60,0000 0000 0000 0000 000000
2013-08-02 01:23:46,0.03,0.06,0.00,24.46,27.60,29.32,5.93,31.96,1019.92,2052.02,3485.48,3338.91,3634.96,350.05,323.47,17.61,0000 0000 0000 0000 000000
2013-08-02 01:24:46,0.03,0.06,0.00,24.42,27.60,29.31,5.97,31.79,1019.95,2052.01,3485.29,3338.74,3634.93,350.58,324.02,17.61,0000 0000 0000 0000 000000
2013-08-02 01:25:46,0.04,0.06,0.00,24.43,27.60,29.32,5.96,31.63,1019.93,2052.01,3485.34,3338.84,3634.91,350.66,324.07,17.62,0000 0000 0000 0000 000000
2013-08-02 01:26:46,-0.03,0.06,0.00,24.49,27.61,29.33,5.89,31.79,1019.90,2052.03,3485.39,3338.88,3634.95,349.96,323.11,17.62,0000 0000 0000 0000 000000
2013-08-02 01:27:47,0.01,0.06,0.00,24.51,27.62,29.34,6.06,31.79,1019.87,2052.05,3485.33,3338.88,3634.94,350.83,323.65,17.63,0000 0000 0000 0000 000000
2013-08-02 01:28:47,0.02,0.06,0.00,24.50,27.62,29.31,5.97,31.50,1019.78,2052.03,3485.24,3338.81,3634.91,350.19,323.57,17.64,0000 0000 0000 0000 000000
2013-08-02 01:29:47,0.00,0.06,0.00,24.50,27.62,29.34,5.86,31.75,1019.73,2052.01,3485.12,3338.67,3634.89,349.82,323.16,17.64,0000 0000 0000 0000 000000
2013-08-02 01:30:48,0.03,0.06,0.00,24.54,27.62,29.35,6.02,31.83,1019.74,2052.02,3485.14,3338.67,3634.84,349.78,323.07,17.65,0000 0000 0000 0000 000000
2013-08-02 01:31:48,0.00,0.06,0.00,24.56,27.62,29.35,6.01,31.79,1019.76,2052.00,3485.07,3338.35,3634.48,350.20,323.45,17.65,0000 0000 0000 0000 000000
2013-08-02 01:32:48,0.13,0.06,0.00,24.55,27.63,29.36,6.05,31.79,1019.74,2052.00,3485.03,3338.15,3634.26,350.48,323.71,17.66,0000 0000 0000 0000 000000
2013-08-02 01:33:48,0.05,0.06,0.00,24.54,27.64,29.36,5.93,31.83,1019.87,2052.00,3485.02,3338.09,3634.17,349.80,323.37,17.66,0000 0000 0000 0000 000000
2013-08-02 01:34:48,0.00,0.06,0.00,24.54,27.65,29.37,6.02,31.63,1019.77,2052.00,3485.00,3338.08,3634.14,350.13,323.59,17.67,0000 0000 0000 0000 000000
2013-08-02 01:35:48,0.01,0.06,0.00,24.57,27.65,29.39,5.83,31.83,1019.80,2052.00,3485.00,3338.06,3634.09,349.93,322.89,17.68,0000 0000 0000 0000 000000
2013-08-02 01:36:49,0.01,0.06,0.00,24.57,27.65,29.44,5.86,31.67,1019.85,2052.00,3485.00,3338.04,3634.03,349.10,322.71,17.68,0000 0000 0000 0000 000000
2013-08-02 01:37:49,0.00,0.06,0.00,24.56,27.65,29.39,6.08,31.71,1019.86,2052.00,3485.00,3338.06,3634.01,349.83,323.42,17.69,0000 0000 0000 0000 000000
2013-08-02 01:38:49,0.00,0.06,0.00,24.57,27.65,29.41,5.88,31.71,1019.87,2052.00,3485.00,3338.05,3634.01,350.41,323.48,17.69,0000 0000 0000 0000 000000
2013-08-02 01:39:49,0.00,0.06,0.00,24.60,27.67,29.44,5.81,31.63,1019.90,2052.00,3485.00,3338.03,3634.01,349.81,323.06,17.70,0000 0000 0000 0000 000000
2013-08-02 01:40:49,0.00,0.06,0.00,24.55,27.67,29.44,6.09,31.75,1019.93,2052.00,3485.00,3338.02,3634.02,351.21,324.67,17.71,0000 0000 0000 0000 000000
2013-08-02 01:41:50,0.00,0.06,0.00,24.53,27.67,29.44,5.97,31.71,1019.92,2052.00,3485.00,3338.02,3634.03,349.47,322.98,17.71,0000 0000 0000 0000 000000
2013-08-02 01:42:50,0.00,0.06,0.00,24.57,27.67,29.42,5.88,32.13,1019.92,2051.99,3485.00,3338.00,3634.01,349.17,322.79,17.72,0000 0000 0000 0000 000000
2013-08-02 01:43:50,0.00,0.06,0.00,24.64,27.67,29.45,6.03,31.88,1019.91,2051.99,3484.98,3338.00,3634.00,350.66,323.83,17.72,0000 0000 0000 0000 000000
2013-08-02 01:44:50,0.00,0.06,0.00,24.64,27.68,29.46,5.93,31.79,1019.92,2051.99,3484.97,3337.98,3634.00,351.16,324.05,17.73,0000 0000 0000 0000 000000
2013-08-02 01:45:50,0.01,0.06,0.00,24.64,27.69,29.45,5.98,31.83,1019.88,2051.99,3484.97,3337.99,3634.00,349.59,322.97,17.73,0000 0000 0000 0000 000000
2013-08-02 01:46:50,0.00,0.06,0.00,24.66,27.70,29.47,5.86,31.63,1019.84,2051.98,3484.96,3337.99,3633.99,350.10,323.37,17.74,0000 0000 0000 0000 000000
2013-08-02 01:47:50,0.00,0.06,0.00,24.69,27.70,29.53,5.98,31.67,1019.86,2051.99,3484.94,3337.99,3633.98,349.37,322.57,17.75,0000 0000 0000 0000 000000
2013-08-02 01:48:50,0.01,0.06,0.00,24.68,27.70,29.52,5.93,31.63,1019.84,2051.99,3484.93,3337.98,3633.99,350.04,323.20,17.75,0000 0000 0000 0000 000000
2013-08-02 01:49:51,0.00,0.06,0.00,24.64,27.70,29.51,6.14,31.67,1019.76,2051.99,3484.94,3337.98,3633.99,351.32,324.40,17.76,0000 0000 0000 0000 000000
2013-08-02 01:50:51,0.00,0.06,0.00,24.66,27.71,29.52,6.00,31.83,1019.73,2051.98,3484.96,3337.99,3633.99,349.90,323.06,17.76,0000 0000 0000 0000 000000
2013-08-02 01:51:51,-0.01,0.06,0.00,24.69,27.72,29.51,6.06,31.92,1019.66,2051.99,3484.33,3337.20,3633.11,349.84,322.82,17.77,0000 0000 0000 0000 000000
2013-08-02 01:52:51,0.40,0.07,0.00,24.70,27.72,29.50,5.82,31.71,1019.60,2051.98,3481.83,3334.14,3629.65,348.61,321.78,17.78,0000 0000 0000 0000 000000
2013-08-02 01:53:52,1.51,0.07,0.00,24.71,27.72,29.50,6.05,31.75,1019.59,2051.98,3480.14,3332.20,3627.40,350.17,323.21,17.78,0000 0000 0000 0000 000000
2013-08-02 01:54:52,0.83,0.08,0.00,24.70,27.72,29.53,6.03,31.75,1019.58,2051.97,3479.41,3331.41,3626.46,349.69,322.77,17.79,0000 0000 0000 0000 000000
2013-08-02 01:55:52,0.29,0.08,0.00,24.69,27.73,29.57,5.98,31.88,1019.57,2051.97,3479.15,3330.99,3626.02,349.33,322.45,17.79,0000 0000 0000 0000 000000
2013-08-02 01:56:52,0.16,0.08,0.00,24.68,27.74,29.57,6.02,31.96,1019.59,2051.95,3479.05,3330.68,3625.77,351.13,324.12,17.80,0000 0000 0000 0000 000000
2013-08-02 01:57:52,0.07,0.08,0.00,24.70,27.75,29.53,5.98,31.71,1019.57,2051.92,3479.02,3330.54,3625.55,350.32,323.41,17.80,0000 0000 0000 0000 000000
2013-08-02 01:58:52,0.01,0.08,0.00,24.71,27.75,29.53,5.87,31.71,1019.57,2051.92,3478.99,3330.50,3625.40,350.21,323.35,17.81,0000 0000 0000 0000 000000
2013-08-02 01:59:52,0.06,0.08,0.00,24.71,27.75,29.58,5.89,31.96,1019.55,2051.88,3478.97,3330.37,3625.24,349.72,322.77,17.82,0000 0000 0000 0000 000000
2013-08-02 02:00:53,0.00,0.08,0.00,24.73,27.75,29.60,5.91,31.67,1019.56,2051.86,3478.96,3330.20,3625.13,349.51,322.56,17.82,0000 0000 0000 0000 000000
2013-08-02 02:01:53,0.03,0.08,0.00,24.76,27.76,29.60,5.88,31.67,1019.56,2051.84,3478.88,3330.09,3625.07,349.70,322.70,17.83,0000 0000 0000 0000 000000
2013-08-02 02:02:53,0.04,0.08,0.00,24.78,27.77,29.66,5.83,31.75,1019.55,2051.82,3478.84,3330.05,3625.05,349.60,322.78,17.83,0000 0000 0000 0000 000000
2013-08-02 02:03:54,-0.02,0.08,0.00,24.78,27.77,29.66,6.03,31.88,1019.55,2051.73,3478.44,3329.71,3624.65,350.05,323.00,17.84,0000 0000 0000 0000 000000
2013-08-02 02:04:54,0.09,0.08,0.00,24.75,27.77,29.63,5.83,31.67,1019.56,2051.73,3478.14,3329.29,3624.23,349.46,322.49,17.85,0000 0000 0000 0000 000000
2013-08-02 02:05:54,0.20,0.08,0.00,24.79,27.77,29.67,5.83,31.67,1019.55,2051.70,3478.05,3329.13,3624.08,349.51,322.82,17.85,0000 0000 0000 0000 000000
2013-08-02 02:06:54,0.00,0.08,0.00,24.78,27.78,29.69,5.91,31.79,1019.55,2051.53,3478.02,3329.05,3624.03,349.37,322.68,17.86,0000 0000 0000 0000 000000
2013-08-02 02:07:54,-0.08,0.08,0.00,24.75,27.80,29.67,5.96,31.71,1019.56,2051.39,3478.00,3329.03,3624.01,349.94,323.02,17.86,0000 0000 0000 0000 000000
2013-08-02 02:08:54,-0.09,0.08,0.00,24.76,27.80,29.68,6.01,31.83,1019.55,2051.30,3477.93,3329.01,3624.00,349.78,322.78,17.87,0000 0000 0000 0000 000000
2013-08-02 02:09:55,-0.09,0.08,0.00,24.83,27.80,29.69,6.05,31.67,1019.55,2051.24,3477.75,3329.00,3623.99,350.26,323.17,17.87,0000 0000 0000 0000 000000
2013-08-02 02:10:55,0.00,0.08,0.00,24.85,27.80,29.70,5.94,31.58,1019.56,2051.19,3477.62,3329.00,3623.99,349.23,322.29,17.88,0000 0000 0000 0000 000000
2013-08-02 02:11:55,-0.02,0.08,0.00,24.83,27.81,29.72,5.73,31.67,1019.55,2051.14,3477.51,3329.00,3623.98,349.85,322.72,17.89,0000 0000 0000 0000 000000
2013-08-02 02:12:55,-0.01,0.08,0.00,24.81,27.82,29.76,5.96,31.92,1019.57,2051.17,3477.60,3329.00,3623.99,349.51,322.35,17.89,0000 0000 0000 0000 000000
2013-08-02 02:13:55,0.00,0.08,0.00,24.86,27.82,29.77,6.01,31.75,1019.56,2051.16,3477.50,3329.00,3623.95,349.75,322.95,17.90,0000 0000 0000 0000 000000
2013-08-02 02:14:55,0.01,0.08,0.00,24.88,27.82,29.80,6.05,31.79,1019.56,2051.06,3477.20,3328.99,3623.78,350.10,322.95,17.90,0000 0000 0000 0000 000000
2013-08-02 02:15:56,-0.02,0.08,0.00,24.87,27.82,29.82,5.92,31.71,1019.55,2051.07,3477.09,3328.98,3623.56,348.76,321.71,17.91,0000 0000 0000 0000 000000
2013-08-02 02:16:56,0.04,0.08,0.00,24.91,27.83,29.79,5.92,31.58,1019.55,2051.06,3477.09,3328.97,3623.41,349.70,322.55,17.92,0000 0000 0000 0000 000000
2013-08-02 02:17:56,0.01,0.08,0.00,24.87,27.85,29.74,5.90,31.71,1019.55,2051.05,3477.05,3328.96,3623.27,350.05,322.90,17.92,0000 0000 0000 0000 000000
2013-08-02 02:18:56,0.02,0.08,0.00,24.86,27.85,29.72,6.01,31.63,1019.55,2051.04,3477.04,3328.94,3623.17,350.36,323.20,17.93,0000 0000 0000 0000 000000
2013-08-02 02:19:57,0.01,0.08,0.00,24.86,27.85,29.74,5.86,31.79,1019.55,2051.03,3477.01,3328.86,3623.07,349.69,322.26,17.93,0000 0000 0000 0000 000000
2013-08-02 02:20:57,0.03,0.08,0.00,24.86,27.85,29.72,6.00,31.88,1019.55,2051.03,3477.00,3328.68,3623.03,350.15,323.29,17.94,0000 0000 0000 0000 000000
2013-08-02 02:21:57,0.03,0.08,0.00,24.85,27.86,29.72,6.05,31.79,1019.55,2051.03,3477.00,3328.50,3623.02,350.29,322.80,17.95,0000 0000 0000 0000 000000
2013-08-02 02:22:58,0.04,0.08,0.00,24.86,27.87,29.74,6.04,31.75,1019.55,2051.01,3477.00,3328.42,3623.02,350.29,323.15,17.95,0000 0000 0000 0000 000000
2013-08-02 02:23:58,-0.01,0.08,0.00,24.88,27.87,29.74,6.08,31.67,1019.55,2051.01,3477.00,3328.33,3623.00,350.65,323.19,17.96,0000 0000 0000 0000 000000
2013-08-02 02:24:58,0.02,0.08,0.00,24.92,27.87,29.77,5.95,31.67,1019.55,2051.03,3477.00,3328.33,3623.01,350.47,323.25,17.96,0000 0000 0000 0000 000000
2013-08-02 02:25:58,0.02,0.08,0.00,24.88,27.87,29.75,5.93,31.67,1019.55,2051.03,3477.00,3328.19,3623.00,349.61,322.42,17.97,0000 0000 0000 0000 000000
2013-08-02 02:26:58,0.00,0.08,0.00,24.90,27.89,29.74,5.82,31.63,1019.55,2051.02,3477.00,3328.11,3623.00,349.18,322.35,17.97,0000 0000 0000 0000 000000
2013-08-02 02:27:58,0.01,0.08,0.00,24.96,27.90,29.79,5.90,31.71,1019.55,2051.00,3476.98,3328.08,3623.00,349.66,322.61,17.98,0000 0000 0000 0000 000000
2013-08-02 02:28:59,0.00,0.08,0.00,24.96,27.90,29.82,6.05,31.88,1019.55,2051.01,3476.99,3328.05,3623.00,350.22,322.97,17.99,0000 0000 0000 0000 000000
2013-08-02 02:29:59,0.00,0.08,0.00,24.95,27.90,29.81,5.72,31.88,1019.55,2051.00,3476.99,3328.02,3622.99,348.64,321.67,17.99,0000 0000 0000 0000 000000
2013-08-02 02:30:59,0.00,0.08,0.00,24.96,27.91,29.80,5.99,31.75,1019.55,2051.00,3476.95,3328.00,3622.95,350.71,323.39,18.00,0000 0000 0000 0000 000000
2013-08-02 02:31:59,0.01,0.08,0.00,24.99,27.92,29.79,5.99,31.58,1019.55,2051.00,3476.95,3328.00,3622.96,350.01,322.90,18.00,0000 0000 0000 0000 000000
2013-08-02 02:33:00,0.00,0.08,0.00,24.96,27.92,29.79,5.83,31.63,1019.55,2051.00,3476.85,3328.00,3622.91,348.89,321.99,18.01,0000 0000 0000 0000 000000
2013-08-02 02:34:00,0.02,0.08,0.00,24.98,27.92,29.82,6.00,31.54,1019.55,2051.00,3476.71,3328.00,3622.84,350.20,322.60,18.02,0000 0000 0000 0000 000000
2013-08-02 02:35:00,0.03,0.08,0.00,24.96,27.92,29.92,5.94,31.71,1019.55,2051.00,3476.52,3328.00,3622.63,349.98,322.97,18.02,0000 0000 0000 0000 000000
2013-08-02 02:36:00,0.05,0.09,0.00,24.97,27.94,29.94,5.97,31.71,1019.55,2051.00,3476.42,3328.00,3622.42,349.24,321.67,18.03,0000 0000 0000 0000 000000